[[{"header":{"parameterUnit":"m.s-1","parameterCategory":2,"la1":30.2991,"la2":30.254,"lo1":-89.0895,"lo2":-89.0444,"dy":0.0017,"dx":0.0017,"nx":28,"ny":28,"refTime":"2025-01-22T09:00:00:Z","depth":"0","parameterNumber":2,"parameterNumberName":"U-component_of_CURRENTS"},"data":[0,0,0,0,0,0,0,0,0,0,0,0,0,0,0,0,0,0,0,0,0,0,0,0,0,0,0,0,0,0,0,0,0,0,0,0,0,0,0,0,0,0,0,0,0,0,0,0,0,0,0,0,0,0,0,0,0,0,0.2388,0.2388,0,0.2377,0.2377,0.2377,0.2365,0.2365,0.2365,0.2366,0.2298,0.2297,0.2295,0,0,0,0,0,0,0,0,0,0,0,0,0,0.2384,0.2384,0.2388,0.2388,0.2388,0.2377,0.2377,0.2376,0.2365,0.2365,0.2365,0.2366,0.2299,0.2297,0.2294,0,0,0,0,0,0,0,0,0,0,0,0,0,0.2377,0.2383,0.2388,0.2384,0.2384,0.2378,0.2377,0.2376,0.2365,0.2365,0.2365,0.2366,0.23,0.2297,0.2294,0.2272,0,0,0.2285,0.2284,0,0,0,0,0,0,0,0,0.2378,0.2377,0.2384,0.2384,0.2384,0.2376,0.2351,0.234,0.2365,0.2368,0.2366,0.2366,0.2321,0.2317,0.231,0.2268,0.2266,0.2285,0.2283,0.2282,0.2281,0,0,0,0,0,0,0,0.2378,0.2377,0.238,0.2384,0.2384,0.2378,0.2377,0.2349,0.234,0.2368,0.2368,0.2372,0.232,0.2313,0.2308,0.2265,0.2285,0.2283,0.2281,0.228,0.224,0.2241,0,0,0,0,0,0,0.2387,0.2378,0.2381,0.238,0.2385,0.2378,0.2377,0.2375,0.2341,0.2338,0.2372,0.2372,0.2318,0.2312,0.2306,0.2298,0.2282,0.2279,0.2278,0.2239,0.224,0.2241,0,0,0,0,0,0,0.2387,0.2387,0.2381,0.2382,0.2381,0.2378,0.2376,0.2375,0.2373,0.2346,0.2341,0.2373,0.2317,0.231,0.2289,0.2295,0.2278,0.2275,0.2239,0.224,0.2241,0.227,0,0,0,0,0,0,0.2386,0.2387,0.2385,0.2382,0.2382,0.2388,0.2377,0.2375,0.2377,0.2376,0.2344,0.2338,0.2317,0.2294,0.2286,0.2291,0.2273,0.2238,0.2239,0.224,0.2268,0.2272,0.2275,0,0,0,0,0,0.2386,0.2387,0.2385,0.2386,0.2381,0.2388,0.2387,0.2383,0.2377,0.238,0.2358,0.2339,0.2297,0.2291,0.2283,0.2286,0.2237,0.2239,0.224,0.2266,0.2271,0.2275,0,0,0,0,0,0,0.2377,0.2386,0.2384,0.2385,0.2392,0.2388,0.2389,0.2386,0.2371,0.2368,0.2338,0.2331,0.2321,0.23,0.2294,0.2282,0.2268,0.2267,0.2291,0.2295,0.2298,0.2312,0.2271,0,0,0,0,0,0.2377,0.2379,0.2389,0.2386,0.2394,0.2391,0.2392,0.2394,0.2383,0.2378,0.2353,0.2332,0.232,0.2304,0.229,0.227,0.2277,0.2271,0.2275,0.2278,0.2285,0.2308,0.2315,0.2246,0.2246,0.2246,0,0,0.2367,0.2375,0.2373,0.2385,0.2386,0.2387,0.2391,0.24,0.2396,0.2371,0.235,0.2343,0.232,0.2309,0.2302,0.2289,0.2301,0.228,0.2282,0.2288,0.2311,0.2317,0.2323,0.2247,0.2247,0.2247,0,0,0.2352,0.2363,0.2361,0.237,0.2386,0.239,0.2395,0.2398,0.2399,0.2382,0.2374,0.2375,0.2332,0.2331,0.2321,0.2334,0.2326,0.2328,0.2344,0.2367,0.2373,0.2378,0.2397,0.2404,0.2321,0.2321,0.2321,0,0.234,0.2339,0.2361,0.2363,0.237,0.239,0.239,0.2393,0.2385,0.2393,0.2379,0.2364,0.2345,0.235,0.2357,0.2342,0.2353,0.2327,0.2372,0.2377,0.2382,0.24,0.2407,0.2323,0.2323,0.2323,0.2323,0,0.2324,0.2324,0.2327,0.2335,0.2347,0.2354,0.2372,0.2383,0.2384,0.2388,0.2402,0.2389,0.2385,0.2381,0.2365,0.2395,0.2391,0.238,0.2361,0.2391,0.2408,0.2415,0.2325,0.2325,0.2324,0.2324,0,0,0.2286,0.2311,0.2308,0.2313,0.2337,0.2346,0.2358,0.2382,0.2401,0.2398,0.2419,0.2409,0.2424,0.2417,0.2414,0.2428,0.2469,0.2417,0.2418,0.2437,0.2521,0.2518,0.2525,0.2466,0.2467,0.2468,0.252,0,0.2263,0.2263,0.2284,0.2281,0.2286,0.2323,0.2335,0.2363,0.2388,0.2415,0.2433,0.2447,0.2431,0.2441,0.2456,0.2474,0.2489,0.2457,0.2489,0.249,0.2485,0.2534,0.2482,0.2524,0.2526,0.2528,0.2528,0,0.2233,0.2241,0.2238,0.227,0.2278,0.2283,0.2334,0.235,0.2407,0.2434,0.2467,0.2484,0.2518,0.2496,0.2541,0.2522,0.2525,0.2532,0.2534,0.2527,0.2501,0.2494,0.2536,0.252,0.2539,0.2538,0.2537,0,0.2193,0.2207,0.2209,0.2215,0.2253,0.2268,0.2293,0.2351,0.2394,0.2454,0.2495,0.2531,0.2565,0.2576,0.2593,0.257,0.2644,0.2611,0.2611,0.261,0.2571,0.2565,0.2601,0.2641,0.2641,0.2641,0.264,0,0.2158,0.2156,0.2191,0.2188,0.2212,0.2243,0.2286,0.2329,0.2406,0.246,0.2503,0.2558,0.2589,0.2632,0.2623,0.2653,0.2669,0.2632,0.2631,0.258,0.2574,0.2561,0.2539,0.2643,0.2642,0.2642,0.2641,0,0.2112,0.2129,0.2139,0.2176,0.2192,0.2209,0.2289,0.2325,0.2402,0.2478,0.2502,0.2602,0.2658,0.2685,0.2721,0.2704,0.2664,0.2717,0.2657,0.2648,0.2616,0.2597,0.2524,0.2435,0.2723,0.2724,0.2724,0,0.209,0.2087,0.213,0.2142,0.2158,0.2195,0.2226,0.2313,0.2363,0.2498,0.2533,0.263,0.2692,0.2766,0.2763,0.277,0.268,0.2708,0.2651,0.2628,0.2607,0.2497,0.2417,0.261,0.2609,0.2608,0.2608,0,0.2054,0.2072,0.2085,0.2115,0.214,0.2175,0.2226,0.2273,0.2373,0.245,0.2548,0.2614,0.2718,0.2727,0.2761,0.2749,0.2613,0.2697,0.2689,0.2543,0.2409,0.2318,0.2562,0.2603,0.2604,0.2604,0.2604,0.2604,0.2033,0.2039,0.2061,0.2085,0.2113,0.2135,0.2148,0.2215,0.2291,0.2385,0.2494,0.2581,0.2675,0.2733,0.2699,0.2662,0.2593,0.2595,0.2582,0.2478,0.2366,0.2605,0.2634,0.2635,0.2635,0.2636,0.2636,0,0.1997,0.2008,0.2031,0.2048,0.2053,0.2086,0.2132,0.2136,0.2184,0.2316,0.2395,0.2527,0.2578,0.2626,0.2642,0.2567,0.2426,0.2509,0.2351,0.228,0.2528,0.25,0.2482,0.2482,0.2482,0.2482,0.2482,0.2482,0.1977,0.1976,0.1987,0.1978,0.1988,0.1974,0.1982,0.2001,0.2081,0.2163,0.2252,0.2357,0.2536,0.267,0.2628,0.2552,0.2347,0.2275,0.2222,0.2443,0.2449,0.2455,0.2426,0.2393,0.2393,0.1888,0.1884,0.1882]},{"header":{"parameterUnit":"m.s-1","parameterCategory":2,"la1":30.2991,"la2":30.254,"lo1":-89.0895,"lo2":-89.0444,"dy":0.0017,"dx":0.0017,"nx":28,"ny":28,"refTime":"2025-01-22T09:00:00:Z","depth":"0","parameterNumber":3,"parameterNumberName":"V-component_of_CURRENTS"},"data":[0,0,0,0,0,0,0,0,0,0,0,0,0,0,0,0,0,0,0,0,0,0,0,0,0,0,0,0,0,0,0,0,0,0,0,0,0,0,0,0,0,0,0,0,0,0,0,0,0,0,0,0,0,0,0,0,0,0,-0.0179,-0.018,0,-0.0201,-0.0201,-0.0202,-0.0218,-0.0218,-0.0218,-0.0218,-0.0213,-0.0213,-0.0213,0,0,0,0,0,0,0,0,0,0,0,0,0,-0.0148,-0.0148,-0.0179,-0.018,-0.018,-0.0201,-0.0201,-0.0202,-0.0218,-0.0218,-0.0218,-0.0218,-0.0213,-0.0213,-0.0213,0,0,0,0,0,0,0,0,0,0,0,0,0,-0.0165,-0.0149,-0.0179,-0.0191,-0.0192,-0.0201,-0.0201,-0.0202,-0.0218,-0.0218,-0.0218,-0.0219,-0.0213,-0.0213,-0.0213,-0.0205,0,0,-0.0211,-0.0211,0,0,0,0,0,0,0,0,-0.0164,-0.0166,-0.0189,-0.019,-0.0191,-0.0207,-0.0189,-0.0202,-0.0218,-0.0208,-0.0218,-0.0219,-0.0209,-0.0209,-0.0212,-0.0205,-0.0205,-0.0211,-0.0211,-0.0211,-0.0211,0,0,0,0,0,0,0,-0.0163,-0.0165,-0.0188,-0.0189,-0.0191,-0.0193,-0.0196,-0.0191,-0.0206,-0.0209,-0.021,-0.0213,-0.0209,-0.0213,-0.0212,-0.0205,-0.0211,-0.0211,-0.0211,-0.021,-0.0197,-0.0197,0,0,0,0,0,0,-0.016,-0.0164,-0.0187,-0.0188,-0.0178,-0.0194,-0.0197,-0.0202,-0.0207,-0.0208,-0.0212,-0.0213,-0.0213,-0.0213,-0.0212,-0.0195,-0.0211,-0.021,-0.021,-0.0197,-0.0197,-0.0197,0,0,0,0,0,0,-0.0159,-0.0162,-0.0186,-0.0177,-0.018,-0.0194,-0.02,-0.0202,-0.0206,-0.021,-0.0211,-0.0214,-0.0214,-0.0213,-0.0205,-0.0195,-0.021,-0.021,-0.0197,-0.0197,-0.0197,-0.0165,0,0,0,0,0,0,-0.0159,-0.0162,-0.0164,-0.0177,-0.018,-0.0185,-0.0199,-0.0202,-0.0207,-0.0209,-0.0211,-0.0211,-0.0214,-0.0206,-0.0205,-0.0194,-0.0209,-0.0197,-0.0197,-0.0197,-0.0166,-0.0164,-0.0162,0,0,0,0,0,-0.0157,-0.0154,-0.0164,-0.0167,-0.0184,-0.0185,-0.0187,-0.0198,-0.0207,-0.0203,-0.0208,-0.0211,-0.0204,-0.0205,-0.0204,-0.0193,-0.0197,-0.0197,-0.0197,-0.0167,-0.0164,-0.0162,0,0,0,0,0,0,-0.0135,-0.0156,-0.0167,-0.0169,-0.0176,-0.0187,-0.0183,-0.0196,-0.0198,-0.0198,-0.0206,-0.0205,-0.0197,-0.0201,-0.0202,-0.0191,-0.0203,-0.0202,-0.0181,-0.0178,-0.0176,-0.0162,-0.0209,0,0,0,0,0,-0.0134,-0.0138,-0.0156,-0.0155,-0.0157,-0.0172,-0.0175,-0.0184,-0.0188,-0.0189,-0.0192,-0.0195,-0.0195,-0.0191,-0.0192,-0.018,-0.0194,-0.0175,-0.0173,-0.0171,-0.016,-0.0177,-0.0175,-0.0196,-0.0196,-0.0196,0,0,-0.0123,-0.0135,-0.0137,-0.0151,-0.0155,-0.0147,-0.0173,-0.0173,-0.0165,-0.0187,-0.0173,-0.0186,-0.0192,-0.0182,-0.0178,-0.0182,-0.0174,-0.0171,-0.0169,-0.0159,-0.0176,-0.0174,-0.0172,-0.0196,-0.0196,-0.0196,0,0,-0.0095,-0.0115,-0.0106,-0.011,-0.012,-0.0128,-0.0127,-0.0139,-0.0144,-0.014,-0.0155,-0.0161,-0.0158,-0.016,-0.0161,-0.0146,-0.0164,-0.0151,-0.0122,-0.0138,-0.0137,-0.0135,-0.0158,-0.0159,-0.0146,-0.0146,-0.0146,0,-0.0084,-0.0075,-0.0101,-0.009,-0.0085,-0.0116,-0.0096,-0.0105,-0.0113,-0.0111,-0.013,-0.0137,-0.0146,-0.0132,-0.0131,-0.0139,-0.0155,-0.013,-0.0135,-0.0134,-0.0133,-0.0156,-0.0157,-0.0145,-0.0145,-0.0145,-0.0145,0,-0.0046,-0.0039,-0.003,-0.0028,-0.0027,-0.0015,-0.0031,-0.0032,-0.0049,-0.0059,-0.0061,-0.0084,-0.0086,-0.0097,-0.0108,-0.0104,-0.012,-0.0132,-0.0139,-0.0128,-0.0154,-0.0156,-0.0143,-0.0143,-0.0144,-0.0144,0,0,-0.0014,-0.0007,-0.0001,0.0013,0.0006,0.0015,0.0026,0.003,0.0043,0.0013,0.0025,0.0004,-0.0021,-0.0025,-0.0049,-0.0067,-0.0084,-0.0094,-0.0095,-0.0112,-0.0126,-0.0149,-0.0154,-0.0098,-0.0098,-0.0098,-0.0149,0,0.0027,0.0062,0.0054,0.0097,0.0116,0.0094,0.0109,0.0104,0.0095,0.0097,0.0054,0.0056,0.001,0.0007,-0.002,-0.0063,-0.0086,-0.0069,-0.0137,-0.0139,-0.0158,-0.0156,-0.016,-0.0207,-0.0151,-0.0152,-0.0152,0,0.0073,0.009,0.0133,0.0158,0.0165,0.018,0.0202,0.0212,0.02,0.019,0.0172,0.0137,0.0108,0.0062,-0.001,0.0002,-0.0056,-0.01,-0.0103,-0.0133,-0.0165,-0.0208,-0.0213,-0.0365,-0.0155,-0.0155,-0.0155,0,0.0116,0.0151,0.0187,0.0195,0.0212,0.0227,0.0238,0.024,0.0266,0.0252,0.0263,0.021,0.0191,0.0111,0.0011,0.0003,-0.0077,-0.0099,-0.0176,-0.0179,-0.0199,-0.0204,-0.0353,-0.015,-0.015,-0.0149,-0.0149,0,0.0163,0.0196,0.0209,0.0228,0.0279,0.0271,0.0324,0.0324,0.034,0.0381,0.0315,0.033,0.0203,0.0138,0.0036,-0.0076,-0.006,-0.0168,-0.0191,-0.019,-0.0193,-0.0339,-0.0426,-0.0151,-0.0151,-0.0151,-0.015,0,0.0207,0.0212,0.0258,0.0284,0.03,0.0335,0.0389,0.043,0.0428,0.0478,0.0477,0.0425,0.0338,0.0201,0.0072,-0.0032,-0.0236,-0.0187,-0.0184,-0.0205,-0.0418,-0.0501,-0.0659,-0.0745,-0.0278,-0.0279,-0.0279,0,0.0228,0.0255,0.0305,0.0342,0.0357,0.041,0.0454,0.0474,0.053,0.0545,0.0579,0.0504,0.0474,0.0262,0.006,-0.0128,-0.027,-0.0262,-0.0278,-0.0431,-0.0541,-0.0595,-0.066,-0.0299,-0.03,-0.0301,-0.0301,0,0.0275,0.0289,0.033,0.0406,0.0459,0.053,0.0595,0.0653,0.0681,0.072,0.0755,0.0727,0.0514,0.0326,0.005,-0.0095,-0.0386,-0.0281,-0.0439,-0.057,-0.0638,-0.073,-0.0273,-0.0307,-0.0307,-0.0306,-0.0306,-0.0306,0.0311,0.0351,0.0405,0.0481,0.0549,0.0639,0.071,0.0784,0.0873,0.0936,0.0896,0.0881,0.0571,0.02,-0.0021,-0.044,-0.0438,-0.0556,-0.0645,-0.0684,-0.0773,-0.0333,-0.0392,-0.0392,-0.0392,-0.0392,-0.0392,0,0.0361,0.0407,0.0479,0.057,0.0655,0.068,0.0801,0.0874,0.0986,0.1032,0.1059,0.0871,0.0517,0.0121,-0.0427,-0.0728,-0.085,-0.0915,-0.1002,-0.1051,-0.0656,-0.0664,-0.0784,-0.0784,-0.0784,-0.0784,-0.0784,-0.0783,0.0387,0.0464,0.0501,0.0643,0.0713,0.0832,0.0906,0.1006,0.1072,0.1098,0.1061,0.1,0.0614,-0.0267,-0.0927,-0.1088,-0.1331,-0.1377,-0.1502,-0.1243,-0.1216,-0.119,-0.1218,-0.1453,-0.1453,-0.1852,-0.1857,-0.186]}],[{"header":{"parameterUnit":"m.s-1","parameterCategory":2,"la1":30.2991,"la2":30.254,"lo1":-89.0895,"lo2":-89.0444,"dy":0.0017,"dx":0.0017,"nx":28,"ny":28,"refTime":"2025-01-22T09:00:00:Z","depth":"2","parameterNumber":2,"parameterNumberName":"U-component_of_CURRENTS"},"data":[0,0,0,0,0,0,0,0,0,0,0,0,0,0,0,0,0,0,0,0,0,0,0,0,0,0,0,0,0,0,0,0,0,0,0,0,0,0,0,0,0,0,0,0,0,0,0,0,0,0,0,0,0,0,0,0,0,0,0.2313,0.2313,0,0.2309,0.2309,0.2308,0.2302,0.2302,0.2302,0.2302,0.2244,0.2242,0.224,0,0,0,0,0,0,0,0,0,0,0,0,0,0.2309,0.2308,0.2313,0.2313,0.2314,0.2309,0.2309,0.2308,0.2302,0.2302,0.2302,0.2302,0.2245,0.2242,0.224,0,0,0,0,0,0,0,0,0,0,0,0,0,0.2304,0.2308,0.2313,0.2313,0.2313,0.2309,0.2309,0.2308,0.2302,0.2302,0.2302,0.2303,0.2245,0.2243,0.224,0.2216,0,0,0.2232,0.2231,0,0,0,0,0,0,0,0,0.2305,0.2304,0.2312,0.2313,0.2313,0.231,0.2286,0.2276,0.2301,0.2302,0.2302,0.2303,0.2263,0.2259,0.2253,0.2213,0.2211,0.2232,0.223,0.2229,0.2228,0,0,0,0,0,0,0,0.2305,0.2304,0.2307,0.2313,0.2313,0.2311,0.231,0.2284,0.2276,0.2302,0.2302,0.2308,0.2262,0.2255,0.2251,0.221,0.2232,0.2229,0.2228,0.2227,0.2193,0.2194,0,0,0,0,0,0,0.2313,0.2304,0.2307,0.2308,0.2314,0.2311,0.231,0.2307,0.2278,0.2275,0.2308,0.2308,0.226,0.2254,0.2249,0.2247,0.2229,0.2226,0.2225,0.2192,0.2193,0.2194,0,0,0,0,0,0,0.2313,0.2313,0.2308,0.231,0.2309,0.2311,0.2308,0.2307,0.2309,0.2284,0.2279,0.2312,0.226,0.2253,0.2236,0.2243,0.2225,0.2223,0.2191,0.2192,0.2193,0.2224,0,0,0,0,0,0,0.2313,0.2313,0.2314,0.231,0.231,0.2317,0.2308,0.2307,0.2313,0.2313,0.2285,0.228,0.2259,0.224,0.2233,0.2239,0.2221,0.219,0.2192,0.2193,0.2222,0.2226,0.2229,0,0,0,0,0,0.2312,0.2314,0.2313,0.2314,0.231,0.2318,0.2318,0.2318,0.2313,0.2319,0.2299,0.2281,0.2244,0.2238,0.223,0.2235,0.219,0.2191,0.2193,0.222,0.2225,0.2229,0,0,0,0,0,0,0.2307,0.2314,0.2313,0.2315,0.2323,0.2319,0.2324,0.2323,0.2311,0.231,0.2281,0.2274,0.2268,0.2248,0.2242,0.2233,0.2218,0.2218,0.2241,0.2245,0.2249,0.2263,0.2218,0,0,0,0,0,0.2308,0.231,0.232,0.2318,0.2326,0.2325,0.2328,0.2331,0.2323,0.2319,0.2296,0.2277,0.2267,0.2253,0.224,0.2223,0.2229,0.2225,0.2229,0.2232,0.2239,0.2262,0.2269,0.2199,0.2199,0.2199,0,0,0.2301,0.2308,0.2306,0.2318,0.232,0.2322,0.2327,0.2338,0.2336,0.2312,0.2295,0.2289,0.2268,0.2259,0.2254,0.224,0.2256,0.2234,0.2237,0.2242,0.2265,0.2271,0.2277,0.22,0.22,0.22,0,0,0.2289,0.2301,0.2299,0.2308,0.2325,0.2328,0.2336,0.2339,0.2342,0.2328,0.2321,0.2323,0.2284,0.2283,0.2274,0.2289,0.2281,0.2284,0.2301,0.2323,0.2329,0.2334,0.2353,0.236,0.2277,0.2277,0.2278,0,0.2281,0.2279,0.23,0.2302,0.231,0.2331,0.2332,0.2336,0.233,0.2339,0.2326,0.2315,0.2297,0.2304,0.2311,0.2297,0.2307,0.2283,0.2328,0.2333,0.2338,0.2356,0.2363,0.2279,0.2279,0.2279,0.2279,0,0.2267,0.2268,0.2271,0.2277,0.229,0.2299,0.2317,0.2329,0.2332,0.2337,0.2353,0.2341,0.2339,0.2336,0.2321,0.2352,0.2348,0.2337,0.2317,0.2347,0.2364,0.2371,0.2282,0.2281,0.228,0.228,0,0,0.2233,0.2257,0.2254,0.2259,0.2283,0.2292,0.2305,0.2329,0.235,0.2349,0.2371,0.2363,0.238,0.2373,0.2371,0.2385,0.2427,0.2375,0.2375,0.2394,0.2478,0.2473,0.2479,0.2424,0.2425,0.2426,0.2477,0,0.2212,0.2213,0.2233,0.2231,0.2236,0.2272,0.2285,0.2314,0.2339,0.2367,0.2386,0.2402,0.2387,0.2398,0.2413,0.2431,0.2446,0.2414,0.2446,0.2447,0.2439,0.2488,0.2248,0.2273,0.2483,0.2484,0.2485,0,0.2185,0.2192,0.2191,0.2222,0.223,0.2235,0.2286,0.2303,0.236,0.2387,0.2422,0.2439,0.2474,0.2453,0.2498,0.248,0.2483,0.2489,0.2491,0.2481,0.2455,0.2277,0.2277,0.2497,0.2496,0.2495,0.2494,0,0.2148,0.2162,0.2164,0.217,0.2207,0.2223,0.2249,0.2306,0.2349,0.2409,0.245,0.2487,0.2521,0.2532,0.255,0.2528,0.26,0.2567,0.2565,0.2564,0.2364,0.2344,0.2597,0.2597,0.2597,0.2597,0.2597,0,0.2115,0.2114,0.2148,0.2146,0.217,0.2201,0.2244,0.2287,0.2363,0.2416,0.246,0.2513,0.2545,0.2588,0.2579,0.2608,0.2625,0.2586,0.2584,0.2369,0.235,0.2543,0.2536,0.2599,0.2599,0.2598,0.2598,0,0.2072,0.2088,0.2098,0.2136,0.2152,0.2169,0.2249,0.2284,0.2361,0.2436,0.246,0.2557,0.2613,0.2639,0.2675,0.2658,0.2671,0.2669,0.2421,0.2391,0.2608,0.2602,0.2672,0.2672,0.2672,0.2673,0.2673,0,0.2051,0.2049,0.2091,0.2103,0.212,0.2158,0.2189,0.2274,0.2323,0.2456,0.2489,0.2584,0.2639,0.271,0.2669,0.2666,0.2703,0.246,0.2378,0.2629,0.262,0.2613,0.2607,0.2116,0.2111,0.2108,0.2105,0,0.2017,0.2035,0.2048,0.2078,0.2103,0.2138,0.2188,0.2234,0.2332,0.2403,0.2497,0.2555,0.262,0.2517,0.2534,0.2499,0.2442,0.2393,0.2708,0.2154,0.2114,0.2103,0.2112,0.2073,0.2076,0.2079,0.208,0.2082,0.1997,0.2003,0.2025,0.205,0.2077,0.2098,0.2111,0.2153,0.222,0.2259,0.2392,0.2369,0.238,0.2284,0.2218,0.2155,0.2331,0.2199,0.2204,0.2215,0.2162,0.2127,0.2078,0.2081,0.2084,0.2086,0.2088,0,0.1954,0.1973,0.1996,0.2013,0.2003,0.205,0.2094,0.2047,0.2056,0.2091,0.2123,0.1939,0.1885,0.1892,0.1744,0.1774,0.1708,0.1703,0.1565,0.16,0.163,0.1541,0.1295,0.1293,0.129,0.1288,0,0,0.1932,0.1925,0.1936,0.1916,0.1936,0.188,0.1885,0.1819,0.1795,0.1716,0.1665,0.176,0.1832,0.1515,0.1494,0.1361,0.1466,0.1313,0.1951,0.1822,0.1848,0.1924,0.1831,0,0,0,0,0]},{"header":{"parameterUnit":"m.s-1","parameterCategory":2,"la1":30.2991,"la2":30.254,"lo1":-89.0895,"lo2":-89.0444,"dy":0.0017,"dx":0.0017,"nx":28,"ny":28,"refTime":"2025-01-22T09:00:00:Z","depth":"2","parameterNumber":3,"parameterNumberName":"V-component_of_CURRENTS"},"data":[0,0,0,0,0,0,0,0,0,0,0,0,0,0,0,0,0,0,0,0,0,0,0,0,0,0,0,0,0,0,0,0,0,0,0,0,0,0,0,0,0,0,0,0,0,0,0,0,0,0,0,0,0,0,0,0,0,0,-0.0061,-0.0062,0,-0.0091,-0.0092,-0.0092,-0.0116,-0.0116,-0.0117,-0.0117,-0.012,-0.0119,-0.0119,0,0,0,0,0,0,0,0,0,0,0,0,0,-0.0031,-0.0032,-0.0061,-0.0062,-0.0062,-0.0091,-0.0092,-0.0092,-0.0116,-0.0116,-0.0117,-0.0117,-0.012,-0.0119,-0.0119,0,0,0,0,0,0,0,0,0,0,0,0,0,-0.0051,-0.0032,-0.0061,-0.0078,-0.008,-0.0091,-0.0092,-0.0092,-0.0116,-0.0116,-0.0117,-0.0117,-0.012,-0.012,-0.0119,-0.0109,0,0,-0.0118,-0.0118,0,0,0,0,0,0,0,0,-0.0049,-0.0052,-0.0075,-0.0077,-0.0079,-0.0101,-0.0082,-0.0097,-0.0116,-0.0102,-0.0117,-0.0117,-0.0111,-0.0111,-0.0116,-0.0109,-0.0109,-0.0118,-0.0118,-0.0118,-0.0118,0,0,0,0,0,0,0,-0.0048,-0.0051,-0.0073,-0.0075,-0.0078,-0.0086,-0.0089,-0.0085,-0.0103,-0.0103,-0.0105,-0.0109,-0.0112,-0.0116,-0.0116,-0.0109,-0.0118,-0.0118,-0.0118,-0.0118,-0.0107,-0.0107,0,0,0,0,0,0,-0.0045,-0.0049,-0.0072,-0.0074,-0.0065,-0.0087,-0.009,-0.0093,-0.0103,-0.0106,-0.0109,-0.011,-0.0116,-0.0116,-0.0116,-0.0103,-0.0118,-0.0118,-0.0118,-0.0108,-0.0107,-0.0107,0,0,0,0,0,0,-0.0044,-0.0046,-0.0071,-0.0063,-0.0066,-0.0087,-0.009,-0.0093,-0.0102,-0.0108,-0.011,-0.0114,-0.0117,-0.0116,-0.0112,-0.0103,-0.0118,-0.0117,-0.0108,-0.0108,-0.0107,-0.0077,0,0,0,0,0,0,-0.0043,-0.0046,-0.005,-0.0062,-0.0067,-0.0073,-0.009,-0.0094,-0.0104,-0.0106,-0.0113,-0.0114,-0.0117,-0.0113,-0.0112,-0.0103,-0.0117,-0.0108,-0.0108,-0.0107,-0.0078,-0.0076,-0.0074,0,0,0,0,0,-0.0041,-0.0039,-0.0049,-0.0052,-0.007,-0.0073,-0.0076,-0.0092,-0.0104,-0.0102,-0.0109,-0.0114,-0.0111,-0.0112,-0.0111,-0.0102,-0.0108,-0.0108,-0.0107,-0.0079,-0.0076,-0.0074,0,0,0,0,0,0,-0.0023,-0.0041,-0.0053,-0.0056,-0.0064,-0.0077,-0.0077,-0.0091,-0.0097,-0.0099,-0.0108,-0.0109,-0.0104,-0.0108,-0.0109,-0.01,-0.0112,-0.0111,-0.009,-0.0088,-0.0086,-0.0072,-0.0117,0,0,0,0,0,-0.0022,-0.0026,-0.0043,-0.0043,-0.0046,-0.0063,-0.0069,-0.008,-0.0086,-0.009,-0.0095,-0.01,-0.0101,-0.0099,-0.0101,-0.0091,-0.0105,-0.0087,-0.0085,-0.0083,-0.0072,-0.0089,-0.0087,-0.0107,-0.0107,-0.0107,0,0,-0.0013,-0.0024,-0.0026,-0.0039,-0.0046,-0.0039,-0.0067,-0.007,-0.0064,-0.0087,-0.0078,-0.0092,-0.0098,-0.009,-0.0088,-0.0092,-0.0087,-0.0082,-0.0081,-0.0071,-0.0089,-0.0087,-0.0085,-0.0106,-0.0106,-0.0106,0,0,0.0013,-0.0006,0.0002,-0.0003,-0.0015,-0.0024,-0.0024,-0.0039,-0.0046,-0.0044,-0.006,-0.0068,-0.0068,-0.007,-0.0072,-0.0058,-0.0077,-0.0063,-0.0036,-0.0053,-0.0051,-0.005,-0.0073,-0.0074,-0.0059,-0.0059,-0.0059,0,0.0021,0.003,0.0005,0.0015,0.0018,-0.0013,0.0004,-0.0006,-0.0017,-0.0016,-0.0036,-0.0046,-0.0056,-0.0044,-0.0044,-0.0052,-0.0068,-0.0044,-0.0049,-0.0048,-0.0047,-0.0071,-0.0073,-0.0058,-0.0058,-0.0058,-0.0058,0,0.0056,0.0062,0.007,0.0072,0.0072,0.0081,0.0065,0.0062,0.0044,0.0032,0.0029,0.0004,0.0001,-0.001,-0.0022,-0.0018,-0.0035,-0.0047,-0.0053,-0.0043,-0.007,-0.0072,-0.0055,-0.0056,-0.0056,-0.0057,0,0,0.0084,0.0091,0.0096,0.0109,0.0102,0.011,0.0118,0.0121,0.0133,0.0101,0.0112,0.0088,0.0063,0.0059,0.0035,0.0017,-0.0001,-0.001,-0.0012,-0.0029,-0.0044,-0.0069,-0.0074,-0.0015,-0.0015,-0.0015,-0.0068,0,0.0121,0.0154,0.0146,0.0186,0.0204,0.0183,0.0197,0.0191,0.0181,0.0182,0.0139,0.0139,0.0094,0.0089,0.0063,0.002,-0.0004,0.0014,-0.0055,-0.0057,-0.0076,-0.0076,-0.0038,-0.0083,-0.007,-0.0071,-0.0071,0,0.0162,0.0179,0.0219,0.0245,0.0251,0.0265,0.0286,0.0295,0.0282,0.0272,0.0252,0.0218,0.0188,0.0143,0.007,0.0082,0.0024,-0.0019,-0.0023,-0.0054,-0.0084,-0.009,-0.0087,-0.0075,-0.0074,-0.0074,-0.0074,0,0.0202,0.0236,0.0269,0.0277,0.0295,0.0309,0.0319,0.0321,0.0347,0.0331,0.0341,0.0288,0.0269,0.0189,0.0089,0.0081,0.0,-0.002,-0.0098,-0.0101,-0.0085,-0.0087,-0.0072,-0.0072,-0.0072,-0.0072,-0.0071,0,0.0245,0.0276,0.0289,0.0308,0.0357,0.035,0.0402,0.0401,0.0417,0.0457,0.0391,0.0406,0.0279,0.0214,0.0113,0.0001,0.0017,-0.0091,-0.0113,-0.0076,-0.0076,-0.0079,-0.0079,-0.0074,-0.0073,-0.0073,-0.0072,0,0.0285,0.029,0.0335,0.0361,0.0376,0.041,0.0465,0.0505,0.0502,0.0552,0.055,0.0498,0.041,0.0275,0.0145,0.0043,-0.0068,-0.0113,-0.0067,-0.0083,-0.0167,-0.0164,-0.0202,-0.0204,-0.0205,-0.0205,-0.0206,0,0.0304,0.0329,0.0379,0.0416,0.043,0.0483,0.0526,0.0547,0.0602,0.0617,0.065,0.0574,0.0543,0.0331,0.0142,-0.0042,-0.0076,-0.0145,-0.0154,-0.016,-0.0178,-0.0175,-0.0171,-0.0126,-0.0126,-0.0126,-0.0126,0,0.0348,0.0362,0.0402,0.0477,0.053,0.0601,0.0665,0.0722,0.0751,0.0789,0.0821,0.0791,0.0589,0.0415,0.0145,0.0019,-0.0116,-0.0153,-0.0161,-0.0101,-0.0093,-0.011,-0.0108,-0.0126,-0.0126,-0.0126,-0.0126,-0.0126,0.0382,0.0421,0.0475,0.055,0.0617,0.0707,0.0778,0.0854,0.0942,0.0999,0.0954,0.0913,0.0698,0.0371,0.0143,-0.0108,-0.0104,-0.0192,-0.019,-0.0188,-0.0172,-0.0166,-0.021,-0.0211,-0.0211,-0.0212,-0.0212,0,0.0436,0.0475,0.0547,0.0637,0.073,0.0746,0.0867,0.0949,0.106,0.1079,0.1098,0.0908,0.0695,0.0433,0.0078,-0.0137,-0.0143,-0.0219,-0.0171,-0.0169,-0.0168,-0.0149,-0.0183,-0.0183,-0.0184,-0.0184,0,0,0.0463,0.0542,0.0579,0.0724,0.0787,0.0925,0.0999,0.1101,0.1153,0.1189,0.115,0.1076,0.0765,0.0517,0.0228,0.0019,-0.0031,-0.0027,-0.0025,0.0067,0.0071,-0.0127,-0.0094,0,0,0,0,0]}],[{"header":{"parameterUnit":"m.s-1","parameterCategory":2,"la1":30.2991,"la2":30.254,"lo1":-89.0895,"lo2":-89.0444,"dy":0.0017,"dx":0.0017,"nx":28,"ny":28,"refTime":"2025-01-22T09:00:00:Z","depth":"4","parameterNumber":2,"parameterNumberName":"U-component_of_CURRENTS"},"data":[0,0,0,0,0,0,0,0,0,0,0,0,0,0,0,0,0,0,0,0,0,0,0,0,0,0,0,0,0,0,0,0,0,0,0,0,0,0,0,0,0,0,0,0,0,0,0,0,0,0,0,0,0,0,0,0,0,0,0.1194,0.1195,0,0.1258,0.1259,0.126,0.1314,0.1315,0.1316,0.1316,0.1418,0.142,0.1422,0,0,0,0,0,0,0,0,0,0,0,0,0,0.1147,0.1148,0.1194,0.1195,0.1195,0.1258,0.1259,0.126,0.1314,0.1315,0.1316,0.1316,0.1417,0.142,0.1422,0,0,0,0,0,0,0,0,0,0,0,0,0,0.1185,0.1148,0.1194,0.123,0.1234,0.1258,0.1259,0.126,0.1314,0.1315,0.1316,0.1317,0.1417,0.142,0.1423,0.1424,0,0,0.1433,0.1434,0,0,0,0,0,0,0,0,0.1183,0.1186,0.1224,0.1228,0.1232,0.1279,0.128,0.1317,0.1314,0.1284,0.1316,0.1317,0.1375,0.1381,0.1391,0.1429,0.1433,0.1433,0.1435,0.1436,0.1437,0,0,0,0,0,0,0,0.118,0.1184,0.1219,0.1225,0.123,0.1254,0.126,0.1287,0.1324,0.1286,0.129,0.1298,0.1377,0.1387,0.1394,0.1435,0.1433,0.1436,0.1438,0.1439,0.1566,0.1567,0,0,0,0,0,0,0.117,0.1181,0.1217,0.1221,0.1209,0.1254,0.126,0.1263,0.1323,0.1332,0.1297,0.13,0.1381,0.139,0.1397,0.1487,0.1436,0.1439,0.1441,0.1564,0.1566,0.1568,0,0,0,0,0,0,0.1168,0.1172,0.1215,0.1203,0.121,0.1253,0.1256,0.1264,0.1307,0.133,0.1341,0.1335,0.1382,0.1393,0.1458,0.1488,0.1441,0.1444,0.1563,0.1565,0.1567,0.1613,0,0,0,0,0,0,0.1167,0.1171,0.1193,0.1202,0.1211,0.1254,0.1255,0.1265,0.1308,0.1314,0.1366,0.1375,0.1384,0.1454,0.1462,0.1492,0.1446,0.1561,0.1564,0.1566,0.1609,0.1616,0.1622,0,0,0,0,0,0.1165,0.1181,0.1193,0.1199,0.1231,0.1255,0.1262,0.1295,0.1309,0.1336,0.1376,0.1375,0.1476,0.1458,0.1467,0.1499,0.156,0.1563,0.1566,0.1607,0.1615,0.1622,0,0,0,0,0,0,0.1167,0.1189,0.1202,0.1224,0.1251,0.1265,0.1294,0.1312,0.1363,0.1379,0.1399,0.1411,0.1479,0.1483,0.1462,0.1543,0.1515,0.152,0.1543,0.1551,0.1557,0.1558,0.1449,0,0,0,0,0,0.1177,0.1197,0.1219,0.1238,0.1254,0.128,0.1302,0.1324,0.1357,0.1381,0.1422,0.1459,0.1492,0.1519,0.1551,0.1598,0.1599,0.1622,0.1629,0.1634,0.1641,0.1668,0.1678,0.1578,0.1578,0.1578,0,0,0.1176,0.1196,0.1205,0.1242,0.1263,0.1296,0.1297,0.1335,0.1372,0.1384,0.1463,0.149,0.1511,0.1566,0.1595,0.1579,0.1664,0.1638,0.1642,0.1646,0.1673,0.1682,0.1691,0.1581,0.158,0.158,0,0,0.1185,0.1209,0.1235,0.1264,0.1309,0.1325,0.1344,0.1386,0.142,0.1485,0.1502,0.1552,0.1611,0.1631,0.1643,0.1704,0.1698,0.1715,0.1749,0.1776,0.1784,0.1791,0.1805,0.1813,0.1715,0.1716,0.1716,0,0.1194,0.1224,0.1246,0.1284,0.1312,0.1342,0.1378,0.1412,0.1477,0.1507,0.1521,0.1614,0.1637,0.1688,0.1711,0.1718,0.173,0.1716,0.1783,0.179,0.1797,0.1809,0.1818,0.1718,0.1718,0.1718,0.1717,0,0.1219,0.1258,0.1274,0.1331,0.1365,0.14,0.1443,0.1494,0.1536,0.1569,0.1648,0.1684,0.1735,0.1749,0.1752,0.1811,0.1802,0.1789,0.1761,0.181,0.182,0.1828,0.1722,0.1721,0.172,0.172,0,0,0.1202,0.1278,0.1291,0.1323,0.1396,0.1417,0.1484,0.1543,0.1588,0.1657,0.1717,0.1777,0.1802,0.1818,0.1831,0.1856,0.1913,0.185,0.185,0.1859,0.1973,0.1847,0.1843,0.1916,0.1917,0.1919,0.196,0,0.1223,0.1288,0.1329,0.1393,0.1424,0.1477,0.1533,0.1593,0.1648,0.1719,0.1759,0.1826,0.1824,0.186,0.1887,0.1913,0.1937,0.1903,0.1928,0.1929,0.1807,0.1848,0.1924,0.1966,0.1968,0.1969,0.197,0,0.1243,0.1283,0.1347,0.1419,0.144,0.149,0.1574,0.1629,0.172,0.1769,0.1837,0.1875,0.1941,0.1927,0.1991,0.1974,0.1982,0.199,0.1991,0.1862,0.1817,0.1908,0.1984,0.1983,0.1982,0.1981,0.198,0,0.121,0.1296,0.1344,0.1372,0.146,0.1506,0.156,0.165,0.1708,0.1809,0.1865,0.1936,0.1991,0.2016,0.2043,0.2029,0.2099,0.2073,0.1964,0.1955,0.2036,0.2027,0.2112,0.2112,0.2112,0.2112,0.2112,0,0.1205,0.1249,0.1337,0.1362,0.1427,0.1494,0.1577,0.1641,0.1746,0.1807,0.1892,0.1944,0.2021,0.2067,0.2069,0.204,0.2121,0.1976,0.1959,0.2054,0.2047,0.2041,0.2032,0.2113,0.2113,0.2113,0.2112,0,0.1162,0.1224,0.1281,0.1377,0.1414,0.146,0.1588,0.1637,0.1748,0.1832,0.1872,0.1983,0.203,0.208,0.2126,0.2064,0.2052,0.2021,0.2127,0.2115,0.1883,0.1877,0.1894,0.189,0.1886,0.1884,0.1881,0,0.1143,0.1169,0.1277,0.1313,0.1365,0.145,0.1505,0.1628,0.1678,0.1829,0.1852,0.1956,0.2006,0.1967,0.2029,0.202,0.1995,0.1975,0.1917,0.188,0.1863,0.1861,0.1859,0.1876,0.1875,0.1874,0.1873,0,0.1098,0.115,0.1194,0.1266,0.1331,0.1391,0.1477,0.151,0.1636,0.1757,0.1784,0.1808,0.1859,0.188,0.1895,0.1884,0.1977,0.1938,0.1944,0.189,0.1858,0.1844,0.1846,0.1861,0.1863,0.1864,0.1865,0,0.1068,0.1083,0.1146,0.12,0.1275,0.1298,0.136,0.1409,0.1476,0.1633,0.1637,0.1734,0.1835,0.181,0.1822,0.1805,0.1769,0.1698,0.1716,0.173,0.1657,0.1591,0.1502,0,0,0,0,0,0.1024,0.1027,0.1071,0.1116,0.1184,0.1219,0.1321,0.1382,0.1507,0.148,0.1554,0.1584,0.1603,0.1659,0.1607,0.1754,0.1781,0.1686,0.171,0.1795,0.1809,0.1737,0,0,0,0,0,0,0.0991,0.1027,0.1036,0.1031,0.1041,0.1095,0.115,0.1234,0.1228,0.136,0.1378,0.1478,0.1522,0.1605,0.157,0.1587,0.1567,0.1753,0.1749,0.1787,0.18,0.1811,0.1742,0,0,0,0,0]},{"header":{"parameterUnit":"m.s-1","parameterCategory":2,"la1":30.2991,"la2":30.254,"lo1":-89.0895,"lo2":-89.0444,"dy":0.0017,"dx":0.0017,"nx":28,"ny":28,"refTime":"2025-01-22T09:00:00:Z","depth":"4","parameterNumber":3,"parameterNumberName":"V-component_of_CURRENTS"},"data":[0,0,0,0,0,0,0,0,0,0,0,0,0,0,0,0,0,0,0,0,0,0,0,0,0,0,0,0,0,0,0,0,0,0,0,0,0,0,0,0,0,0,0,0,0,0,0,0,0,0,0,0,0,0,0,0,0,0,0.0294,0.0294,0,0.0256,0.0255,0.0255,0.0224,0.0224,0.0224,0.0224,0.0185,0.0184,0.0183,0,0,0,0,0,0,0,0,0,0,0,0,0,0.0306,0.0306,0.0294,0.0294,0.0294,0.0256,0.0255,0.0254,0.0224,0.0224,0.0224,0.0224,0.0185,0.0184,0.0183,0,0,0,0,0,0,0,0,0,0,0,0,0,0.0286,0.0306,0.0295,0.0276,0.0274,0.0256,0.0255,0.0254,0.0224,0.0224,0.0224,0.0224,0.0186,0.0184,0.0183,0.0178,0,0,0.0179,0.0178,0,0,0,0,0,0,0,0,0.0287,0.0285,0.0279,0.0277,0.0275,0.0246,0.0245,0.023,0.0224,0.0241,0.0224,0.0223,0.0207,0.0204,0.0194,0.0177,0.0175,0.0179,0.0178,0.0177,0.0177,0,0,0,0,0,0,0,0.0288,0.0286,0.0277,0.0278,0.0276,0.0257,0.0254,0.0242,0.0224,0.0239,0.0238,0.0236,0.0206,0.0196,0.0193,0.0174,0.0179,0.0178,0.0177,0.0176,0.0145,0.0145,0,0,0,0,0,0,0.0299,0.0288,0.0278,0.0276,0.0283,0.0257,0.0254,0.0254,0.0224,0.022,0.0237,0.0235,0.0198,0.0195,0.0192,0.0184,0.0177,0.0176,0.0175,0.0145,0.0145,0.0145,0,0,0,0,0,0,0.03,0.0299,0.028,0.0282,0.0279,0.0257,0.0258,0.0253,0.0245,0.0222,0.0218,0.0233,0.0198,0.0194,0.0178,0.0182,0.0176,0.0174,0.0145,0.0145,0.0145,0.0169,0,0,0,0,0,0,0.03,0.0299,0.0304,0.0283,0.0279,0.0273,0.0258,0.0253,0.0245,0.0243,0.0218,0.0214,0.0197,0.018,0.0177,0.018,0.0173,0.0145,0.0145,0.0145,0.0168,0.017,0.0171,0,0,0,0,0,0.0301,0.0309,0.0304,0.0303,0.0287,0.0273,0.0269,0.0251,0.0245,0.0242,0.0223,0.0215,0.0178,0.0179,0.0175,0.0178,0.0145,0.0145,0.0145,0.0168,0.0169,0.0171,0,0,0,0,0,0,0.0318,0.0306,0.0301,0.0306,0.0292,0.0269,0.0268,0.0255,0.0237,0.0236,0.0213,0.0207,0.0195,0.0183,0.0185,0.0169,0.0161,0.016,0.018,0.0181,0.0183,0.0193,0.0172,0,0,0,0,0,0.0325,0.0327,0.0311,0.0316,0.0311,0.0291,0.0284,0.0271,0.0253,0.0245,0.0224,0.0206,0.0191,0.0184,0.0167,0.016,0.0145,0.0159,0.0161,0.0162,0.0168,0.0147,0.0147,0.0145,0.0145,0.0145,0,0,0.0337,0.0329,0.0332,0.0319,0.0309,0.0303,0.0286,0.0279,0.0272,0.0245,0.0228,0.0209,0.019,0.0177,0.0172,0.0169,0.0154,0.0162,0.0163,0.0168,0.0147,0.0147,0.0147,0.0145,0.0145,0.0145,0,0,0.0353,0.0351,0.0354,0.0343,0.0329,0.0317,0.0317,0.0292,0.0281,0.0263,0.0243,0.0227,0.0201,0.0187,0.0178,0.0179,0.0161,0.0175,0.0193,0.0172,0.0172,0.0172,0.0149,0.0147,0.0177,0.0177,0.0177,0,0.0365,0.0366,0.0353,0.0347,0.0346,0.0325,0.0327,0.0311,0.0282,0.0279,0.0262,0.0225,0.0206,0.0198,0.0195,0.0183,0.0168,0.0188,0.0174,0.0174,0.0174,0.015,0.0148,0.0179,0.0178,0.0178,0.0178,0,0.0374,0.0376,0.0378,0.0367,0.0362,0.0361,0.0343,0.0334,0.0318,0.0301,0.0285,0.0251,0.0233,0.0222,0.0207,0.0198,0.0186,0.0178,0.0172,0.0175,0.015,0.0147,0.018,0.018,0.018,0.0179,0,0,0.0395,0.0387,0.0387,0.0393,0.0374,0.0376,0.0368,0.0361,0.0367,0.0328,0.0326,0.029,0.0273,0.0262,0.024,0.0219,0.0196,0.0199,0.0198,0.018,0.0148,0.0137,0.0132,0.0185,0.0184,0.0184,0.0131,0,0.0405,0.041,0.04,0.0413,0.0418,0.0404,0.0402,0.0393,0.0381,0.0372,0.0336,0.0325,0.0289,0.0284,0.0255,0.0215,0.0189,0.0211,0.0144,0.0143,0.0135,0.0128,0.0183,0.0128,0.0127,0.0127,0.0126,0,0.0411,0.0417,0.0431,0.0446,0.0448,0.0452,0.0464,0.046,0.0442,0.0433,0.0411,0.0381,0.0347,0.0315,0.024,0.0256,0.0205,0.0167,0.0164,0.0144,0.0125,0.0124,0.012,0.012,0.0121,0.0121,0.0122,0,0.0433,0.0441,0.0461,0.0461,0.0468,0.0479,0.0485,0.048,0.0495,0.0475,0.0481,0.0428,0.0408,0.0335,0.0249,0.0246,0.0163,0.015,0.0089,0.0087,0.0104,0.0104,0.0095,0.0096,0.0096,0.0096,0.0096,0,0.0443,0.0461,0.0476,0.0485,0.0521,0.0512,0.055,0.0545,0.0551,0.0574,0.0518,0.0518,0.0413,0.0351,0.0264,0.0166,0.0172,0.0091,0.0074,0.0114,0.0116,0.0101,0.0102,0.0094,0.0094,0.0095,0.0095,0,0.0459,0.0464,0.0496,0.0518,0.0532,0.0558,0.0604,0.0631,0.0624,0.0651,0.0648,0.059,0.0504,0.0392,0.0273,0.0195,0.0098,0.006,0.0111,0.0097,0.0031,0.0035,-0.001,-0.0011,-0.0011,-0.0012,-0.0012,0,0.0466,0.0483,0.0529,0.056,0.0574,0.0617,0.0651,0.0666,0.0699,0.0696,0.071,0.0638,0.0582,0.0405,0.0281,0.0109,0.0082,0.0028,0.0026,0.0034,0.0021,0.0025,0.0029,-0.0014,-0.0014,-0.0014,-0.0014,0,0.0486,0.0507,0.0537,0.06,0.0646,0.0703,0.075,0.0778,0.0791,0.0792,0.076,0.0661,0.056,0.041,0.0274,0.0152,0.0061,0.002,0.0021,0.0018,0.0029,0.0018,0.0022,-0.0017,-0.0016,-0.0016,-0.0016,0,0.051,0.0539,0.0585,0.0641,0.0704,0.0762,0.0786,0.0814,0.0839,0.0823,0.0812,0.0691,0.0622,0.0433,0.0311,0.0184,0.015,0.0105,0.01,0.0101,0.0144,0.0175,0.016,0,0,0,0,0,0.053,0.0567,0.0623,0.0686,0.0749,0.079,0.0842,0.0859,0.087,0.0853,0.0832,0.0733,0.0541,0.0462,0.0333,0.0296,0.0129,0.014,0.0075,-0.003,-0.0027,0.0002,0,0,0,0,0,0,0.0544,0.0599,0.0626,0.0713,0.0765,0.0841,0.0876,0.0885,0.0872,0.0856,0.0758,0.0701,0.0519,0.0619,0.0333,0.0295,0.0234,0.0051,0.0048,-0.0032,-0.0029,-0.0027,0.0005,0,0,0,0,0]}]]